Regional Weather Roundup
Issued by NWS

Home | Current Version | Previous Version | Text Only | Print | Product List | Glossary Off
Versions: 1 2 3 4 5 6 7 8 9 10 11 12 13 14 15 16 17 18 19 20 21 22 23 24 25 26 27 28 29 30 31 32 33 34 35 36 37 38 39 40 41 42 43 44 45 46 47 48 49 50

000
ASUS45 KPSR 241710
RWRAZ

ARIZONA HOURLY REGIONAL WEATHER ROUNDUP
NATIONAL WEATHER SERVICE PHOENIX AZ
1000 AM MST FRI NOV 24 2017

NOTE: FAIR INDICATES FEW OR NO CLOUDS BELOW 12,000 FEET WITH NO
SIGNIFICANT WEATHER AND/OR OBSTRUCTIONS TO VISIBILITY.

AZZ001>003-036-241800-
NORTHWEST ARIZONA

CITY           SKY/WX    TMP DP  RH WIND       PRES   REMARKS
BULLHEAD CITY  SUNNY     64  39  39 CALM      29.98R
KINGMAN        SUNNY     72  31  22 S6        30.05S
$$

AZZ004>008-015-016-018-241800-
NORTH CENTRAL ARIZONA

CITY           SKY/WX    TMP DP  RH WIND       PRES   REMARKS
GRAND CANYON   SUNNY     60  24  25 SW10      30.21S
WILLIAMS       SUNNY     66  16  14 SW10      30.22R
PRESCOTT       SUNNY     59  27  29 N3        30.15R
FLAGSTAFF      SUNNY     61  22  22 SW13      30.22S
PAYSON         SUNNY     66  28  24 CALM      30.16S
PAGE           SUNNY     52  32  46 NW3       30.10S
$$

AZZ009>014-017-241800-
NORTHEAST ARIZONA

CITY           SKY/WX    TMP DP  RH WIND       PRES   REMARKS
WINSLOW        SUNNY     50  23  34 E8        30.14S
SAINT JOHNS    SUNNY     50  18  28 CALM      30.17R
WINDOW ROCK    SUNNY     51  23  33 CALM      30.19F
SHOW LOW       SUNNY     66  27  22 S10       30.21R
$$

AZZ540-542>544-546-548-241800-
GREATER PHOENIX AREA

CITY           SKY/WX    TMP DP  RH WIND       PRES   REMARKS
PHOENIX        MOSUNNY   70  35  27 E7        29.96S
BUCKEYE        SUNNY     68  68 100 CALM      29.97S
GLENDALE       MOSUNNY   68  36  30 CALM      29.99R
LUKE AFB       SUNNY     70  34  26 NE3       29.96S
DEER VALLEY    SUNNY     71  32  23 CALM      29.97S
SCOTTSDALE     SUNNY     69  39  33 CALM      29.99S
MESA-FALCON    MOSUNNY   70  34  26 VRB5      29.99
CHANDLER       SUNNY     63  34  34 CALM      29.98S
$$

AZZ539-553-241800-
SOUTHWEST MARICOPA COUNTY AND PINAL COUNTY

CITY           SKY/WX    TMP DP  RH WIND       PRES   REMARKS
CASA GRANDE    NOT AVBL
$$

AZZ503-504-507>509-241800-
SOUTHEAST ARIZONA

CITY           SKY/WX    TMP DP  RH WIND       PRES   REMARKS
TUCSON         SUNNY     71  26  18 SE8       30.05S
DAVIS-MONTHAN  SUNNY     71  26  19 S7        30.03R
RYAN FIELD     SUNNY     64  30  27 SE6       30.04S
NOGALES        SUNNY     67  26  21 CALM      30.10S
SIERRA VISTA   SUNNY     73  21  14 CALM      30.14F
DOUGLAS        SUNNY     60  23  24 S3        30.13S
SAFFORD        SUNNY     60  24  25 S7        30.07F
$$

AZZ532-241800-
SOUTHWEST ARIZONA

CITY           SKY/WX    TMP DP  RH WIND       PRES   REMARKS
YUMA           SUNNY     72  40  31 N6        29.91R
$$

CAZ041-043-047-048-061-525>527-560>570-241800-
SOUTHERN CALIFORNIA

CITY           SKY/WX    TMP DP  RH WIND       PRES   REMARKS
DOWNTOWN L.A.  SUNNY     72  40  31 CALM      29.93R
L.A. AIRPORT   MOSUNNY   74  45  35 E7        29.93S
SAN DIEGO      MOSUNNY   72  44  36 CALM      29.95R
BURBANK        SUNNY     73  40  30 CALM      29.95R
ONTARIO        MOSUNNY   70  38  31 CALM      29.96S
RIVERSIDE      SUNNY     69  44  40 CALM      29.96S
PALM SPRINGS   SUNNY     76  43  30 CALM      29.93R
EL CENTRO NAS  MOSUNNY   71  35  26 CALM      29.92R
IMPERIAL       SUNNY     69  38  32 CALM      29.89R
BLYTHE         SUNNY     63  39  41 CALM      29.95R
NEEDLES        SUNNY     67  33  28 CALM      29.98R
$$

NVZ020-UTZ003-241800-
SOUTHERN NEVADA-UTAH

CITY           SKY/WX    TMP DP  RH WIND       PRES   REMARKS
LAS VEGAS      MOSUNNY   65  37  35 NE3       30.02R
SALT LAKE CITY MOSUNNY   53  44  71 SE3       30.04S
$$

NMZ009-TXZ055-241800-
NEW MEXICO-WEST TEXAS

CITY           SKY/WX    TMP DP  RH WIND       PRES   REMARKS
ALBUQUERQUE    MOSUNNY   49  29  46 CALM      30.14S
EL PASO        MOSUNNY   63  27  25 SW5       30.07F
$$


........................KEY........................
SKY/WX - SKY CONDITION/WEATHER
TMP    - TEMPERATURE IN FAHRENHEIT
DP     - DEW POINT IN FAHRENHEIT
RH     - RELATIVE HUMIDITY IN PERCENT
WIND   - DIRECTION AND SPEED IN MILES PER HOUR (MPH)
VRB    - VARIABLE WIND DIRECTION
PRES   - MEAN SEA LEVEL PRESSURE IN INCHES OF MERCURY
         F - FALLING PRESSURE   R - RISING PRESSURE
         S - STEADY PRESSURE
VSB    - VISIBILITY IN MILES
HX     - HEAT INDEX IN FAHRENHEIT
WCI    - WIND CHILL INDEX IN FAHRENHEIT
TC     - TEMPERATURE IN CELSIUS WHICH IS ALSO KNOWN AS
         TEMPERATURE IN CENTIGRADE
AFB    - AIR FORCE BASE
         LUKE AFB IS LUKE AIR FORCE BASE
         DAVIS-MONTHAN IS DAVIS-MONTHAN AIR FORCE BASE
NAS    - NAVAL AIR STATION
         EL CENTRO NAS IS EL CENTRO NAVAL AIR STATION
N/A    - NOT AVAILABLE




USA.gov is the U.S. government's official web portal to all federal, state and local government web resources and services.